{"data":{"norad_id":40298,"intl_designator":"2014-070A","name":"ASNARO","alt_names":[],"object_type":"PAYLOAD","status":"ACTIVE","operator":null,"country":"JPN","launch_date":"2014-11-06","launch_site_code":"DLS","launch_vehicle":null,"mission":null,"orbit_class":"UNKNOWN","rcs_meters":2.648,"size_class":null,"mass_kg":null,"dimensions":null,"purposes":["earth_obs"],"wikipedia_slug":null,"has_3d_model":false,"image_url":null,"decayed_at":null,"tle_current":{"epoch":"2026-09-20T04:19:20.502624Z","epoch_age_seconds":45958,"freshness":"FRESH","line1":"1 40298U 14070A   26263.18009841  .00001119  00000+0  55930-4 0  9992","line2":"2 40298  97.3375 336.6970 0004890 181.3518 178.7705 15.19454692658438","mean_motion":15.19454692,"eccentricity":0.000489,"inclination_deg":97.3375,"raan_deg":336.697,"arg_perigee_deg":181.3518,"mean_anomaly_deg":178.7705,"bstar":5.593e-5,"rev_number":65843,"period_min":94.770841643497,"perigee_km":504.12047785334,"apogee_km":510.85461866153,"semimajor_km":6885.6245482574,"source":"CELESTRAK","updated_at":"2026-09-20T09:00:33.962539Z"}}}